User: anonymous   Login
Location: Kawakawa
(35.3830°S, 174.0670°E)
Time: 19:22:27
(UTC+13:00)
Language:

deb Explorer IX - Orbit

View from above orbital plane
View from above orbital plane
View from above satellite
View from above satellite

Ground track
Ground track

The orbit data is extracted from the following two-line orbital elements,

1    85U 61004C   19339.25528991  .00001806  00000-0  40859-3 0  9994
2    85  38.7713 296.2499 0388620 278.8587  76.8357 14.20018208903315
Epoch (UTC): 05 December 2019 06:07:37
Eccentricity: 0.0388620
inclination: 38.7713°
perigee height: 545 km
apogee height: 1105 km
right ascension of ascending node: 296.2499°
argument of perigee: 278.8587°
revolutions per day: 14.20018208
mean anomaly at epoch: 76.8357°
orbit number at epoch: 90331

The dashed part of the orbit path shows where the satellite is in the earth's shadow,  

DLR